Terminal Aerodrome Forecast
Issued by NWS Sterling, VA

Home | Current Version | Previous Version | Text Only | Print | Product List | Glossary On
Versions: 1 2 3 4 5 6 7 8 9 10 11 12 13 14 15 16 17 18 19 20 21 22 23 24 25 26 27 28
000
FTUS41 KLWX 051128
TAFIAD
TAF
KIAD 051128Z 0512/0618 VRB04KT P6SM FEW060 BKN200
     FM051500 29008G16KT P6SM FEW050
     FM060000 33005KT P6SM FEW200
     FM061100 36005KT P6SM BKN100
     FM061600 VRB04KT 6SM -SHRA OVC050=

USA.gov is the U.S. government's official web portal to all federal, state and local government web resources and services.